{"data":{"norad_id":62035,"intl_designator":"2024-216D","name":"STARLINK-32592","alt_names":[],"object_type":"PAYLOAD","status":"ACTIVE","operator":null,"country":"US","launch_date":"2024-11-21","launch_site_code":"AFETR","launch_vehicle":null,"mission":null,"orbit_class":"UNKNOWN","rcs_meters":null,"size_class":null,"mass_kg":null,"dimensions":null,"purposes":["comms"],"wikipedia_slug":null,"has_3d_model":false,"image_url":null,"decayed_at":null,"tle_current":{"epoch":"2026-05-25T03:29:39.496128Z","epoch_age_seconds":58341,"freshness":"FRESH","line1":"1 62035U 24216D   26145.14559602  .00009266  00000+0  34555-3 0  9998","line2":"2 62035  42.9985 191.8865 0000975 289.1817  70.8929 15.27604576 85494","mean_motion":15.27604576,"eccentricity":9.75e-5,"inclination_deg":42.9985,"raan_deg":191.8865,"arg_perigee_deg":289.1817,"mean_anomaly_deg":70.8929,"bstar":0.00034555,"rev_number":8549,"period_min":94.265232156518,"perigee_km":482.30654917157,"apogee_km":483.64446611057,"semimajor_km":6861.1125076411,"source":"CELESTRAK","updated_at":"2026-05-25T13:38:19.523975Z"}}}